GRMLN EGFF-EGFE

Flight info

Callsign GRMLN
Flight time 0h 40m
Altitude 3500
Route EGFF DCT EGFH DCT EGFE
Aircraft P28A/L-SFG/C

Departure

Time 2026-05-07 16:22
Airport Cardiff International Airport (EGFF)

Arrival

Time 2026-05-07 17:03
Airport Haverfordwest Airport (EGFE)
Time Latitude Longitude Altitude Speed Heading
2026-05-07 16:10 51.39492 -3.34464 216 ft 0 kts 352°
2026-05-07 16:10 51.39503 -3.34466 215 ft 6 kts 352°
2026-05-07 16:11 51.39532 -3.34421 214 ft 10 kts 73°
2026-05-07 16:11 51.39539 -3.34373 214 ft 0 kts 74°
2026-05-07 16:20 51.39543 -3.34353 214 ft 7 kts 74°
2026-05-07 16:21 51.39558 -3.34256 212 ft 5 kts 75°
2026-05-07 16:21 51.39585 -3.34186 212 ft 10 kts 354°
2026-05-07 16:21 51.39617 -3.34180 213 ft 2 kts 295°
2026-05-07 16:21 51.39721 -3.34531 230 ft 62 kts 295°
2026-05-07 16:22 51.39900 -3.35243 449 ft 73 kts 293°
2026-05-07 16:22 51.40073 -3.36036 730 ft 73 kts 288°
2026-05-07 16:22 51.40256 -3.36850 968 ft 84 kts 288°
2026-05-07 16:22 51.40470 -3.37753 1213 ft 91 kts 291°
2026-05-07 16:23 51.40785 -3.38700 1406 ft 102 kts 300°
2026-05-07 16:23 51.41212 -3.39725 1418 ft 111 kts 298°
2026-05-07 16:23 51.41603 -3.40774 1397 ft 108 kts 295°
2026-05-07 16:23 51.41955 -3.41832 1383 ft 106 kts 292°
2026-05-07 16:24 51.42259 -3.42913 1352 ft 108 kts 289°
2026-05-07 16:24 51.42543 -3.44016 1352 ft 106 kts 289°
2026-05-07 16:24 51.42843 -3.45086 1383 ft 107 kts 291°
2026-05-07 16:24 51.43154 -3.46160 1390 ft 106 kts 290°
2026-05-07 16:25 51.43446 -3.47235 1367 ft 104 kts 290°
2026-05-07 16:25 51.43737 -3.48315 1348 ft 107 kts 291°
2026-05-07 16:25 51.44063 -3.49391 1405 ft 107 kts 292°
2026-05-07 16:25 51.44377 -3.50505 1404 ft 110 kts 291°
2026-05-07 16:26 51.44697 -3.51607 1437 ft 108 kts 292°
2026-05-07 16:26 51.45021 -3.52685 1428 ft 107 kts 293°
2026-05-07 16:26 51.45345 -3.53749 1386 ft 107 kts 293°
2026-05-07 16:26 51.45565 -3.54465 1382 ft 105 kts 292°
2026-05-07 16:27 51.45978 -3.55864 1374 ft 105 kts 290°
2026-05-07 16:27 51.46262 -3.56942 1353 ft 102 kts 289°
2026-05-07 16:27 51.46567 -3.57948 1390 ft 100 kts 295°
2026-05-07 16:27 51.46894 -3.58933 1408 ft 99 kts 292°
2026-05-07 16:28 51.47203 -3.59946 1409 ft 102 kts 293°
2026-05-07 16:28 51.47528 -3.61000 1398 ft 108 kts 293°
2026-05-07 16:28 51.47875 -3.62072 1398 ft 108 kts 294°
2026-05-07 16:28 51.48194 -3.63148 1412 ft 106 kts 292°
2026-05-07 16:29 51.48499 -3.64218 1380 ft 107 kts 293°
2026-05-07 16:29 51.48843 -3.65287 1385 ft 111 kts 296°
2026-05-07 16:29 51.49211 -3.66345 1656 ft 108 kts 295°
2026-05-07 16:29 51.49586 -3.67408 1910 ft 111 kts 295°
2026-05-07 16:30 51.49965 -3.68463 2282 ft 101 kts 297°
2026-05-07 16:30 51.50341 -3.69352 2687 ft 93 kts 302°
2026-05-07 16:30 51.50719 -3.70184 2969 ft 93 kts 301°
2026-05-07 16:30 51.51076 -3.71058 3203 ft 96 kts 294°
2026-05-07 16:31 51.51347 -3.72025 3459 ft 95 kts 284°
2026-05-07 16:31 51.51611 -3.73121 3480 ft 114 kts 284°
2026-05-07 16:31 51.51892 -3.74288 3473 ft 110 kts 285°
2026-05-07 16:31 51.52171 -3.75421 3479 ft 109 kts 284°
2026-05-07 16:32 51.52427 -3.76545 3477 ft 106 kts 284°
2026-05-07 16:32 51.52721 -3.77624 3473 ft 105 kts 286°
2026-05-07 16:32 51.53002 -3.78699 3470 ft 104 kts 286°
2026-05-07 16:32 51.53284 -3.79772 3468 ft 104 kts 285°
2026-05-07 16:33 51.53566 -3.80845 3469 ft 105 kts 286°
2026-05-07 16:33 51.53811 -3.81942 3469 ft 104 kts 281°
2026-05-07 16:33 51.54044 -3.83030 3469 ft 104 kts 282°
2026-05-07 16:33 51.54277 -3.84126 3467 ft 103 kts 282°
2026-05-07 16:34 51.54510 -3.85214 3476 ft 103 kts 281°
2026-05-07 16:34 51.54747 -3.86298 3475 ft 103 kts 282°
2026-05-07 16:34 51.54986 -3.87378 3475 ft 103 kts 282°
2026-05-07 16:34 51.55225 -3.88458 3475 ft 102 kts 282°
2026-05-07 16:35 51.55461 -3.89538 3474 ft 102 kts 282°
2026-05-07 16:35 51.55698 -3.90613 3474 ft 102 kts 282°
2026-05-07 16:35 51.55934 -3.91691 3474 ft 102 kts 282°
2026-05-07 16:35 51.56170 -3.92771 3474 ft 103 kts 282°
2026-05-07 16:36 51.56408 -3.93838 3474 ft 103 kts 283°
2026-05-07 16:36 51.56793 -3.94847 3469 ft 106 kts 295°
2026-05-07 16:36 51.57171 -3.95864 3470 ft 106 kts 294°
2026-05-07 16:36 51.57555 -3.96879 3470 ft 106 kts 293°
2026-05-07 16:37 51.57938 -3.97895 3470 ft 106 kts 294°
2026-05-07 16:37 51.58266 -3.98945 3470 ft 105 kts 287°
2026-05-07 16:37 51.58469 -3.99650 3471 ft 105 kts 287°
2026-05-07 16:37 51.58777 -4.00724 3472 ft 106 kts 287°
2026-05-07 16:38 51.59078 -4.01780 3471 ft 105 kts 288°
2026-05-07 16:38 51.59385 -4.02853 3473 ft 105 kts 287°
2026-05-07 16:38 51.59786 -4.04266 3472 ft 104 kts 287°
2026-05-07 16:38 51.60087 -4.05329 3473 ft 105 kts 287°
2026-05-07 16:39 51.60291 -4.06050 3472 ft 105 kts 287°
2026-05-07 16:39 51.60579 -4.07103 3471 ft 104 kts 283°
2026-05-07 16:39 51.60851 -4.08184 3471 ft 105 kts 286°
2026-05-07 16:39 51.61139 -4.09260 3471 ft 105 kts 285°
2026-05-07 16:40 51.61423 -4.10342 3470 ft 105 kts 285°
2026-05-07 16:40 51.61706 -4.11422 3470 ft 105 kts 285°
2026-05-07 16:40 51.61828 -4.12522 3468 ft 97 kts 255°
2026-05-07 16:40 51.61855 -4.13997 3468 ft 101 kts 267°
2026-05-07 16:41 51.61887 -4.14752 3469 ft 100 kts 266°
2026-05-07 16:41 51.61935 -4.15878 3469 ft 101 kts 266°
2026-05-07 16:41 51.61985 -4.16999 3468 ft 100 kts 266°
2026-05-07 16:41 51.62035 -4.18098 3467 ft 100 kts 267°
2026-05-07 16:42 51.62086 -4.19210 3467 ft 99 kts 266°
2026-05-07 16:42 51.62135 -4.20318 3467 ft 99 kts 266°
2026-05-07 16:42 51.62216 -4.21426 3460 ft 103 kts 281°
2026-05-07 16:42 51.62789 -4.22183 3471 ft 112 kts 328°
2026-05-07 16:43 51.63449 -4.22854 3481 ft 114 kts 321°
2026-05-07 16:43 51.64139 -4.23545 3489 ft 123 kts 324°
2026-05-07 16:43 51.64859 -4.24315 3475 ft 124 kts 322°
2026-05-07 16:43 51.65565 -4.25025 3475 ft 119 kts 322°
2026-05-07 16:44 51.66261 -4.25735 3470 ft 118 kts 322°
2026-05-07 16:44 51.66950 -4.26431 3467 ft 117 kts 322°
2026-05-07 16:44 51.67636 -4.27125 3463 ft 116 kts 322°
2026-05-07 16:44 51.68313 -4.27808 3463 ft 114 kts 323°
2026-05-07 16:45 51.68981 -4.28483 3464 ft 113 kts 322°
2026-05-07 16:45 51.69648 -4.29157 3465 ft 114 kts 322°
2026-05-07 16:45 51.70316 -4.29831 3464 ft 113 kts 322°
2026-05-07 16:45 51.70981 -4.30502 3466 ft 112 kts 322°
2026-05-07 16:46 51.71635 -4.31158 3462 ft 112 kts 322°
2026-05-07 16:46 51.72299 -4.31827 3463 ft 113 kts 322°
2026-05-07 16:46 51.72969 -4.32501 3465 ft 114 kts 322°
2026-05-07 16:46 51.73641 -4.33182 3466 ft 114 kts 322°
2026-05-07 16:47 51.74199 -4.34019 3461 ft 107 kts 295°
2026-05-07 16:47 51.74618 -4.35019 3463 ft 108 kts 300°
2026-05-07 16:47 51.75055 -4.36010 3466 ft 109 kts 298°
2026-05-07 16:47 51.75498 -4.37020 3478 ft 111 kts 299°
2026-05-07 16:48 51.75912 -4.38059 3466 ft 109 kts 285°
2026-05-07 16:48 51.75989 -4.39229 3466 ft 107 kts 269°
2026-05-07 16:48 51.76090 -4.40425 3466 ft 106 kts 270°
2026-05-07 16:48 51.76178 -4.41597 3466 ft 106 kts 274°
2026-05-07 16:49 51.76407 -4.42753 3468 ft 109 kts 282°
2026-05-07 16:49 51.76620 -4.43919 3467 ft 108 kts 280°
2026-05-07 16:49 51.76835 -4.45071 3461 ft 106 kts 280°
2026-05-07 16:49 51.77049 -4.46188 3462 ft 103 kts 280°
2026-05-07 16:50 51.77261 -4.47293 3462 ft 104 kts 280°
2026-05-07 16:50 51.77473 -4.48415 3463 ft 105 kts 281°
2026-05-07 16:50 51.77681 -4.49548 3466 ft 105 kts 281°
2026-05-07 16:50 51.77887 -4.50671 3466 ft 106 kts 280°
2026-05-07 16:51 51.78097 -4.51795 3462 ft 103 kts 280°
2026-05-07 16:51 51.78308 -4.52896 3460 ft 102 kts 281°
2026-05-07 16:51 51.78519 -4.53987 3458 ft 103 kts 281°
2026-05-07 16:51 51.78727 -4.55078 3460 ft 100 kts 280°
2026-05-07 16:52 51.78932 -4.56158 3466 ft 103 kts 280°
2026-05-07 16:52 51.79146 -4.57268 3466 ft 104 kts 280°
2026-05-07 16:52 51.79151 -4.58358 3459 ft 95 kts 240°
2026-05-07 16:52 51.79020 -4.59392 3458 ft 102 kts 272°
2026-05-07 16:53 51.79139 -4.60515 3461 ft 100 kts 271°
2026-05-07 16:53 51.79248 -4.61626 3462 ft 101 kts 273°
2026-05-07 16:53 51.79371 -4.62729 3460 ft 99 kts 274°
2026-05-07 16:53 51.79497 -4.63817 3460 ft 98 kts 274°
2026-05-07 16:54 51.79624 -4.64894 3458 ft 98 kts 274°
2026-05-07 16:54 51.79754 -4.65978 3457 ft 99 kts 274°
2026-05-07 16:54 51.79884 -4.67058 3459 ft 98 kts 274°
2026-05-07 16:54 51.80013 -4.68143 3461 ft 99 kts 274°
2026-05-07 16:55 51.80143 -4.69220 3462 ft 99 kts 274°
2026-05-07 16:55 51.80275 -4.70322 3462 ft 100 kts 274°
2026-05-07 16:55 51.80423 -4.71409 3443 ft 101 kts 281°
2026-05-07 16:55 51.80842 -4.72378 3367 ft 108 kts 301°
2026-05-07 16:56 51.81285 -4.73343 3235 ft 107 kts 300°
2026-05-07 16:56 51.81703 -4.74332 3090 ft 107 kts 297°
2026-05-07 16:56 51.82463 -4.76421 2804 ft 109 kts 289°
2026-05-07 16:57 51.82745 -4.77548 2647 ft 108 kts 284°
2026-05-07 16:57 51.82969 -4.78678 2491 ft 106 kts 282°
2026-05-07 16:57 51.83179 -4.79804 2362 ft 103 kts 281°
2026-05-07 16:57 51.83366 -4.80914 2230 ft 100 kts 279°
2026-05-07 16:58 51.83543 -4.81985 2132 ft 97 kts 279°
2026-05-07 16:58 51.83732 -4.82996 2155 ft 94 kts 283°
2026-05-07 16:58 51.83935 -4.84014 2158 ft 94 kts 281°
2026-05-07 16:58 51.84112 -4.85021 2095 ft 91 kts 278°
2026-05-07 16:59 51.84278 -4.85996 2015 ft 88 kts 279°
2026-05-07 16:59 51.84449 -4.86914 1937 ft 86 kts 280°
2026-05-07 16:59 51.84602 -4.87842 1856 ft 85 kts 279°
2026-05-07 16:59 51.84758 -4.88794 1744 ft 91 kts 279°
2026-05-07 17:00 51.84938 -4.89792 1633 ft 92 kts 283°
2026-05-07 17:00 51.85134 -4.90767 1543 ft 92 kts 281°
2026-05-07 17:00 51.85328 -4.91762 1405 ft 93 kts 281°
2026-05-07 17:00 51.85663 -4.92565 1324 ft 85 kts 323°
2026-05-07 17:01 51.86072 -4.93203 1140 ft 79 kts 282°
2026-05-07 17:01 51.85960 -4.93923 986 ft 65 kts 219°
2026-05-07 17:01 51.85555 -4.94180 856 ft 63 kts 194°
2026-05-07 17:01 51.85154 -4.94407 685 ft 61 kts 202°
2026-05-07 17:02 51.84777 -4.94725 475 ft 61 kts 205°
2026-05-07 17:02 51.84423 -4.95013 413 ft 54 kts 206°
2026-05-07 17:02 51.84092 -4.95380 297 ft 58 kts 207°
2026-05-07 17:02 51.83764 -4.95685 176 ft 51 kts 206°
2026-05-07 17:03 51.83491 -4.95934 148 ft 37 kts 206°
2026-05-07 17:03 51.83427 -4.96073 143 ft 15 kts 268°
2026-05-07 17:03 51.83427 -4.96284 144 ft 20 kts 270°
2026-05-07 17:03 51.83423 -4.96494 145 ft 19 kts 267°
2026-05-07 17:04 51.83419 -4.96688 146 ft 13 kts 268°
2026-05-07 17:04 51.83397 -4.96774 146 ft 7 kts 176°
2026-05-07 17:04 51.83344 -4.96745 146 ft 9 kts 161°
2026-05-07 17:04 51.83273 -4.96703 146 ft 12 kts 161°
2026-05-07 17:05 51.83217 -4.96710 146 ft 9 kts 195°
2026-05-07 17:05 51.83191 -4.96734 146 ft 0 kts 222°